GW0285 Weather Reports


time (UTC)temp
C
wind
direction
speed
KPH
gust
KPH
rain 1hr
cm
rain 24hr
cm
rain mn
cm
humidity
%
barometer
mb
20260510163603 11 349 3.2 19.3 0.00 0.28 0.28 83 1013.5
20260510162703 11 333 3.2 14.5 0.00 0.28 0.28 84 1013.8
20260510161824 11 335 1.6 11.3 0.00 0.28 0.28 84 1014.1
20260510160924 11 345 3.2 16.1 0.00 0.28 0.28 84 1013.8
20260510160003 11 321 3.2 16.1 0.00 0.28 0.28 85 1014.1
20260510155403 11 329 3.2 16.1 0.00 0.28 0.28 85 1013.9
20260510154503 11 333 3.2 6.4 0.00 0.28 0.28 84 1014.1
20260510153603 11 356 3.2 14.5 0.00 0.28 0.28 85 1014.1
20260510152703 11 356 3.2 16.1 0.00 0.28 0.28 86 1014.3
20260510151803 11 312 1.6 8.0 0.00 0.28 0.28 86 1014.6
20260510150903 11 343 1.6 11.3 0.00 0.28 0.28 87 1014.2
20260510150003 10 331 3.2 9.7 0.00 0.28 0.28 87 1014.3
20260510145403 10 346 3.2 14.5 0.00 0.28 0.28 87 1014.4
20260510144503 10 337 4.8 16.1 0.00 0.28 0.28 88 1014.5
20260510143603 10 331 3.2 11.3 0.00 0.28 0.28 88 1014.7
20260510142703 10 332 3.2 9.7 0.00 0.28 0.28 88 1014.7
20260510141803 10 352 4.8 16.1 0.00 0.28 0.28 88 1014.8
20260510140903 10 323 4.8 19.3 0.00 0.28 0.28 88 1014.7
20260510140003 10 317 4.8 19.3 0.00 0.28 0.28 88 1014.6
20260510135403 10 320 4.8 19.3 0.00 0.28 0.28 88 1014.6
20260510134503 10 343 3.2 9.7 0.00 0.28 0.28 88 1014.7
20260510133603 10 320 4.8 19.3 0.03 0.28 0.28 88 1014.9
20260510132724 10 337 3.2 11.3 0.05 0.28 0.28 89 1015.0
20260510131803 10 336 4.8 22.5 0.08 0.28 0.28 89 1014.9
20260510130903 10 360 3.2 19.3 0.13 0.28 0.28 89 1014.9
20260510130024 10 323 3.2 8.0 0.15 0.28 0.28 90 1015.1
20260510125405 10 337 3.2 14.5 0.18 0.28 0.28 90 1015.2
20260510124524 10 340 3.2 11.3 0.23 0.28 0.28 90 1015.4
20260510123603 10 339 3.2 14.5 0.20 0.25 0.25 90 1015.5
20260510122703 10 335 3.2 11.3 0.18 0.23 0.23 90 1015.4
20260510121803 10 338 3.2 11.3 0.18 0.20 0.20 89 1015.8
20260510120903 10 22 3.2 14.5 0.13 0.15 0.15 88 1015.6
20260510120003 10 343 3.2 19.3 0.10 0.13 0.13 87 1015.8
20260510115403 10 331 4.8 19.3 0.10 0.10 0.10 86 1015.7
20260510114503 10 332 3.2 11.3 0.05 0.05 0.05 86 1015.7
20260510113603 10 324 4.8 19.3 0.05 0.05 0.05 85 1015.7
20260510112703 10 354 6.4 19.3 0.05 0.05 0.05 84 1015.9
20260510111824 10 1 6.4 19.3 0.03 0.03 0.03 84 1015.7
20260510110903 10 4 6.4 22.5 0.03 0.03 0.03 83 1015.8
20260510110003 10 341 4.8 14.5 0.03 0.03 0.03 82 1015.7
20260510105424 10 332 4.8 24.1 0.00 0.00 0.00 82 1016.0
20260510104524 10 336 6.4 22.5 0.00 0.00 0.00 82 1015.9
20260510103624 10 349 6.4 27.4 0.00 0.00 0.00 81 1016.0
20260510102703 11 336 4.8 11.3 0.00 0.00 0.00 79 1016.1
20260510101824 11 349 6.4 19.3 0.00 0.00 0.00 77 1016.1
20260510100903 11 354 4.8 16.1 0.00 0.00 0.00 76 1016.2
20260510100003 11 357 6.4 30.6 0.00 0.00 0.00 75 1016.1
20260510095424 11 354 6.4 19.3 0.00 0.00 0.00 75 1016.2
20260510094503 11 355 8.0 27.4 0.00 0.00 0.00 75 1016.1
20260510093603 11 5 6.4 22.5 0.00 0.00 0.00 75 1016.0
20260510092703 11 298 6.4 16.1 0.00 0.00 0.00 75 1016.2
20260510091803 11 353 9.7 30.6 0.00 0.00 0.00 76 1016.0
20260510090903 11 3 6.4 17.7 0.00 0.00 0.00 77 1015.9
20260510090003 10 16 8.0 27.4 0.00 0.00 0.00 77 1016.0
20260510085403 10 354 8.0 22.5 0.00 0.00 0.00 77 1015.9
20260510084503 10 351 6.4 22.5 0.00 0.00 0.00 78 1016.0
20260510083603 10 5 6.4 19.3 0.00 0.00 0.00 78 1016.1
20260510082703 10 335 6.4 24.1 0.00 0.00 0.00 78 1015.9
20260510081803 10 335 6.4 22.5 0.00 0.00 0.00 78 1016.2
20260510080904 10 335 4.8 14.5 0.00 0.00 0.00 79 1016.2
20260510080024 10 343 4.8 19.3 0.00 0.00 0.00 79 1016.2
20260510075404 10 336 4.8 22.5 0.00 0.00 0.00 79 1015.9
20260510074503 10 2 6.4 22.5 0.00 0.00 0.00 79 1016.1
20260510073603 10 346 6.4 14.5 0.00 0.00 0.00 80 1015.9
20260510072703 10 330 4.8 19.3 0.00 0.00 0.00 80 1016.1
20260510071803 10 321 4.8 14.5 0.00 0.00 0.00 80 1016.4
20260510070903 10 348 6.4 19.3 0.00 0.00 0.00 81 1016.2
20260510070004 10 326 4.8 14.5 0.00 0.00 0.00 82 1016.1
20260510065425 10 322 4.8 22.5 0.00 0.00 0.00 82 1016.1
20260510064503 10 335 6.4 16.1 0.00 0.00 0.00 83 1016.3
20260510063624 9 328 4.8 19.3 0.00 0.00 0.00 84 1016.3
20260510062703 9 360 4.8 14.5 0.00 0.00 0.00 85 1016.3
20260510061803 9 339 4.8 22.5 0.00 0.00 0.00 85 1016.5
20260510060903 9 314 4.8 14.5 0.00 0.00 0.00 86 1016.5
20260510060003 8 337 4.8 22.5 0.00 0.00 0.00 86 1016.3
20260510055403 8 341 4.8 11.3 0.00 0.00 0.00 86 1016.6
20260510054503 8 335 4.8 16.1 0.00 0.00 0.00 86 1016.4
20260510053603 9 1 4.8 19.3 0.00 0.00 0.00 86 1016.4
20260510052703 9 328 1.6 16.1 0.00 0.00 0.00 86 1016.4
20260510051824 9 339 4.8 22.5 0.00 0.00 0.00 86 1016.3
20260510050903 9 323 6.4 19.3 0.00 0.00 0.00 86 1016.3
20260510050003 8 314 4.8 14.5 0.00 0.00 0.00 86 1016.2
20260510045403 8 340 4.8 22.5 0.00 0.00 0.00 86 1016.0
20260510044503 9 353 3.2 11.3 0.00 0.00 0.00 86 1016.3
20260510043603 9 347 6.4 24.1 0.00 0.00 0.00 86 1015.9
20260510042724 9 347 4.8 22.5 0.00 0.00 0.00 86 1015.9
20260510041804 9 327 4.8 19.3 0.00 0.00 0.00 86 1016.0
20260510040903 9 358 4.8 14.5 0.00 0.00 0.00 85 1016.2
20260510040004 9 324 4.8 16.1 0.00 0.00 0.00 85 1016.2
20260510035403 9 325 4.8 16.1 0.00 0.00 0.00 85 1016.3
20260510034524 9 330 3.2 16.1 0.00 0.00 0.00 84 1016.2
20260510033603 9 357 6.4 27.4 0.00 0.00 0.00 83 1016.3
20260510032703 9 318 3.2 19.3 0.00 0.00 0.00 81 1016.4
20260510031803 10 315 3.2 19.3 0.00 0.00 0.00 80 1016.5
20260510030924 10 337 1.6 16.1 0.00 0.00 0.00 78 1016.5
20260510030003 10 259 0.0 11.3 0.00 0.00 0.00 76 1016.5
20260510025403 10 328 0.0 11.3 0.00 0.00 0.00 75 1016.5
20260510024503 10 2 0.0 14.5 0.00 0.00 0.00 74 1016.7
20260510023624 10 22 0.0 8.0 0.00 0.00 0.00 74 1016.5
20260510022724 10 352 0.0 4.8 0.00 0.00 0.00 73 1016.5
20260510021824 11 74 0.0 11.3 0.00 0.00 0.00 73 1016.2
20260510020903 11 14 0.0 11.3 0.00 0.00 0.00 72 1016.3
20260510020003 11 238 1.6 19.3 0.00 0.00 0.00 72 1016.3
20260510015424 11 53 1.6 19.3 0.00 0.00 0.00 72 1016.1
20260510014503 11 346 0.0 8.0 0.00 0.00 0.00 71 1016.2
20260510013603 11 149 0.0 4.8 0.00 0.00 0.00 70 1016.4
20260510012703 11 0 0.0 0.0 0.00 0.00 0.00 69 1016.6
20260510011824 11 45 0.0 1.6 0.00 0.00 0.00 69 1016.5
20260510010903 11 25 1.6 16.1 0.00 0.00 0.00 68 1016.4
20260510010003 11 330 1.6 16.1 0.00 0.00 0.00 68 1016.3
20260510005424 11 325 1.6 16.1 0.00 0.00 0.00 67 1016.3
20260510004503 11 313 0.0 11.3 0.00 0.00 0.00 67 1016.4
20260510003603 11 39 0.0 4.8 0.00 0.00 0.00 66 1016.4
20260510002703 11 321 1.6 16.1 0.00 0.00 0.00 65 1016.3
20260510001803 11 349 0.0 4.8 0.00 0.00 0.00 64 1016.2
20260510000903 11 52 0.0 11.3 0.00 0.00 0.00 62 1016.3
20260510000003 11 349 0.0 4.8 0.00 0.00 0.00 62 1016.4
20260509235403 11 2 0.0 6.4 0.00 0.00 0.00 61 1016.5
20260509234503 12 29 0.0 14.5 0.00 0.00 0.00 60 1016.3
20260509233603 12 318 0.0 3.2 0.00 0.00 0.00 59 1016.3
20260509232703 12 320 1.6 14.5 0.00 0.00 0.00 58 1016.4
20260509231803 12 19 0.0 19.3 0.00 0.00 0.00 57 1016.3
20260509230903 12 325 0.0 8.0 0.00 0.00 0.00 57 1016.3
20260509230004 12 95 0.0 16.1 0.00 0.00 0.00 56 1016.4
20260509225403 12 9 1.6 16.1 0.00 0.00 0.00 55 1016.5
20260509224503 12 21 0.0 16.1 0.00 0.00 0.00 54 1016.5
20260509223603 12 346 1.6 16.1 0.00 0.00 0.00 54 1016.4
20260509222703 12 345 0.0 8.0 0.00 0.00 0.00 53 1016.4
20260509221804 12 3 0.0 14.5 0.00 0.00 0.00 53 1016.4
20260509220903 12 346 0.0 16.1 0.00 0.00 0.00 52 1016.4
20260509220003 12 5 0.0 16.1 0.00 0.00 0.00 53 1016.3
20260509215424 12 18 0.0 3.2 0.00 0.00 0.00 55 1016.5
20260509214503 12 24 0.0 8.0 0.00 0.00 0.00 53 1016.5
20260509213624 12 344 0.0 4.8 0.00 0.00 0.00 54 1016.5
20260509212703 12 341 0.0 11.3 0.00 0.00 0.00 56 1016.5
20260509211803 13 333 0.0 0.0 0.00 0.00 0.00 56 1016.4
20260509210903 13 347 0.0 8.0 0.00 0.00 0.00 56 1016.4
20260509210003 13 0 0.0 0.0 0.00 0.00 0.00 56 1016.5
20260509205403 13 340 0.0 3.2 0.00 0.00 0.00 56 1016.3
20260509204503 13 0 0.0 0.0 0.00 0.00 0.00 55 1016.3
20260509203603 13 13 0.0 3.2 0.00 0.00 0.00 55 1016.2
20260509202703 14 85 0.0 8.0 0.00 0.00 0.00 56 1016.3
20260509201803 14 22 0.0 8.0 0.00 0.00 0.00 56 1015.9
20260509200903 14 315 0.0 0.0 0.00 0.00 0.00 56 1015.9
20260509200003 15 275 0.0 8.0 0.00 0.00 0.00 55 1015.8
20260509195403 15 345 0.0 11.3 0.00 0.00 0.00 55 1016.0
20260509194503 15 343 0.0 11.3 0.00 0.00 0.00 56 1015.9
20260509193603 15 317 0.0 4.8 0.00 0.00 0.00 57 1015.6
20260509192703 16 102 0.0 3.2 0.00 0.00 0.00 56 1015.8
20260509191803 16 0 0.0 0.0 0.00 0.00 0.00 57 1015.9
20260509190903 16 0 0.0 0.0 0.00 0.00 0.00 58 1015.9
20260509190003 17 347 0.0 11.3 0.00 0.00 0.00 56 1015.8
20260509185403 17 303 0.0 3.2 0.00 0.00 0.00 56 1015.8
20260509184524 17 343 0.0 4.8 0.00 0.00 0.00 55 1015.7
20260509183603 17 27 1.6 16.1 0.00 0.00 0.00 54 1015.6
20260509182703 17 338 0.0 4.8 0.00 0.00 0.00 53 1015.8
20260509181804 18 72 0.0 11.3 0.00 0.00 0.00 53 1015.9
20260509180903 18 37 0.0 14.5 0.00 0.00 0.00 52 1016.0
20260509180003 18 58 1.6 14.5 0.00 0.00 0.00 52 1015.8
20260509175403 18 49 0.0 8.0 0.00 0.00 0.00 52 1015.8
20260509174503 19 33 0.0 8.0 0.00 0.00 0.00 51 1015.9
20260509173603 19 22 0.0 4.8 0.00 0.00 0.00 50 1015.9
20260509172703 18 82 0.0 14.5 0.00 0.00 0.00 51 1015.9
20260509171803 19 316 0.0 11.3 0.00 0.00 0.00 52 1015.9
20260509170903 19 30 0.0 8.0 0.00 0.00 0.00 51 1015.8
20260509170003 19 325 0.0 4.8 0.00 0.00 0.00 50 1015.8
20260509165403 20 20 0.0 1.6 0.00 0.00 0.00 50 1015.6
20260509164503 20 24 1.6 8.0 0.00 0.00 0.00 48 1015.7